Find Starlink 31738

NORAD ID: 59535 Int'l Des: 2024-074 Owner: SPXS Country: US Constellation: starlink operational
LEOCIRCULAR

現在のビュー

3D地球を読み込み中...

About Starlink 31738

Starlink 31738 (NORAD 59535) is a starlink constellation satellite (v2 mini) launched Apr 18, 2024 by SPXS of US. It operates in LEO, CIRCULAR orbit with a mass of 730.00 kg.

次回通過

Passes for default location (London). Set your location on the main map for personalized predictions.

高度履歴

Loading altitude history...

軌道要素

1 59535U 24074B 26258.61098558 -.00001225 00000-0 -34999-4 0 9999
2 59535 43.0026 347.1244 0000742 284.3988 75.6781 15.27577781135108
Epoch: Sep 15, 2026 • Age: 7 hours

現在のステータス

高度 485.6 km
遠地点 / 近地点 N/A
速度 7.63 km/s
衛星直下点 38.09°N, 152.32°E
打ち上げ日 Apr 18, 2024
運用期間 2.4 years
タイプ internet

技術仕様

分類 Payload
質量 730.00 kg
乾燥質量 700.00 kg
長さ 0.30 m
スパン 29.00 m
形状 ? Box + pan
製造者 SPXS
バスタイプ Starlink V2M
フェーズステータス In Orbit
所有者/国 SPXS/US

Most Searched